Location: La Brionne
(46.1728°N, 1.7849°E)
Time: 16:06:39
(UTC+00:00)

Cosmos 1378 Rocket - Pass Details

Date: 16 June 2021
Orbit: 601 x 627 km, 82.5° (Epoch: 03 August)

Event Time Altitude Azimuth Distance (km) Brightness Sun altitude
Rises 20:33:45 0° 194° (SSW) 2,851 6.7 -7.0°
Reaches altitude 10° 20:35:58 10° 196° (SSW) 1,955 5.8 -7.3°
Maximum altitude 20:40:16 69° 280° (W) 658 3.9 -7.8°
Drops below altitude 10° 20:44:40 10° 4° (N) 1,988 6.8 -8.3°
Sets 20:46:55 0° 7° (N) 2,902 7.6 -8.6°
